Weather Roundup
Issued by NWS

Home | Current Version | Previous Version | Graphics & Text | Print | Product List | Glossary Off
Versions: 1 2 3 4 5 6 7 8 9 10 11 12 13 14 15 16 17 18 19 20 21 22 23 24 25 26 27 28 29 30 31 32 33 34 35 36 37 38 39 40 41 42 43 44 45 46 47 48 49 50

000
NZUS93 KARX 020810
HRRWXR

CURRENT HOURLY OBSERVATIONS ACROSS
MUCH OF THE UPPER MISSISSIPPI VALLEY
NATIONAL WEATHER SERVICE LA CROSSE WI
300 AM CDT SUN AUG 02 2015


...SOUTHEAST MINNESOTA...


CITY           SKY/WX    TMP DP  RH WIND       PRES   REMARKS
ROCHESTER      CLEAR     71  66  84 SW15      29.79F
ROCHESTER/MAYO FAIR      71  68  90 SW13G18   29.77F
WINONA         PTCLDY    73  68  83 SW8       29.76F
AUSTIN         PTCLDY    70  66  88 SW8       29.79F
ALBERT LEA     CLOUDY    72  66  83 SW7       29.79F
DODGE CENTER   PTCLDY    70  66  88 SW13      29.78F
PRESTON        CLEAR     69  66  91 SW7       29.80F
OWATONNA       PTCLDY    70  64  83 SW12      29.77F THUNDER
FARIBAULT      PTCLDY    70  66  88 S7        29.75F
$$

...ELSEWHERE IN MINNESOTA...


CITY           SKY/WX    TMP DP  RH WIND       PRES   REMARKS
MINNEAPOLIS    PTCLDY    75  65  70 SW13      29.71F
INTNL FALLS    CLOUDY    61  59  93 W5        29.66F
DULUTH         MOCLDY    67  59  75 W7        29.67F
RED WING       CLEAR     73  66  78 W9        29.72F
REDWOOD FALLS  CLEAR     71  65  81 SW12      29.71F
MANKATO        CLOUDY    73  63  68 SW15      29.75F
WORTHINGTON    CLEAR     70  61  73 SW12      29.81F
FAIRMONT       PTCLDY    73  61  64 SW12G17   29.79S
$$

...SOUTHWEST WISCONSIN...


CITY           SKY/WX    TMP DP  RH WIND       PRES   REMARKS
LA CROSSE      MOCLDY    75  69  81 SE5       29.77F
PRAIRIE DU CHI CLEAR     73  67  80 CALM      29.80F
BOSCOBEL       CLEAR     73  68  84 SW7       29.80F
LONE ROCK      CLEAR     66  63  90 E3        29.81F
PLATTEVILLE    CLEAR     69  68  96 SW8       29.85F
FORT MC COY    PTCLDY    71  65  82 CALM      29.79F
CAMP DOUGLAS   PTCLDY    72  72 100 SW8       29.78F
VIROQUA        FAIR      72  69  90 SW8       29.82S
WIS DELLS      MOCLDY    73  65  78 SW10      29.80F
$$

...ELSEWHERE IN WISCONSIN...


CITY           SKY/WX    TMP DP  RH WIND       PRES   REMARKS
MILWAUKEE      PTCLDY    72  66  81 W8        29.84F
MADISON        PTCLDY    76  68  76 VRB7      29.82F
GREEN BAY      CLOUDY    65  60  84 CALM      29.78S
EAU CLAIRE     MOCLDY    71  66  84 SW7       29.73F
BLACK RVR FLS  FAIR      67  67 100 S6        29.76F
MEDFORD        MOCLDY    67  64  91 S10       29.76F
WAUSAU         CLOUDY    66  63  90 SE3       29.76F
WIS RAPIDS     CLOUDY    69  63  81 SW6       29.80F
MARSHFIELD     LGT RAIN  68  62  81 SW8       29.77F
RICE LAKE      PTCLDY    66  63  88 CALM      29.74S
$$

...NORTHEAST IOWA...


CITY           SKY/WX    TMP DP  RH WIND       PRES   REMARKS
DECORAH        CLEAR     73  70  88 VRB7G15   29.81F
MASON CITY     PTCLDY    72  68  87 S14       29.84F
CHARLES CITY   CLEAR     70  70 100 SW9       29.83F
OELWEIN          N/A    N/A N/A N/A MISG        N/A
$$

...ELSEWHERE IN IOWA...


CITY           SKY/WX    TMP DP  RH WIND       PRES   REMARKS
DES MOINES     PTCLDY    73  64  73 SW10      29.87F
IOWA CITY      CLEAR     71  68  90 CALM      29.89F
FORT DODGE     CLEAR     70  66  88 SW10      29.86F
$$

...NORTHERN ILLINOIS...


CITY           SKY/WX    TMP DP  RH WIND       PRES   REMARKS
CHICAGO-OHARE  PTCLDY    72  66  81 W12       29.87F
CHICAGO-MIDWAY PTCLDY    76  65  68 SW10      29.88S
MOLINE         CLEAR     72  69  90 S3        29.88F
ROCKFORD       MOCLDY    69  65  86 S6        29.88F
PEORIA         CLEAR     71  66  84 SW6       29.93S
$$

NOTE: "FAIR" INDICATES FEW OR NO CLOUDS BELOW 12,000 FEET WITH NO
SIGNIFICANT WEATHER AND/OR OBSTRUCTIONS TO VISIBILITY. WIND
SPEEDS ARE IN MILES-PER-HOUR.



USA.gov is the U.S. government's official web portal to all federal, state and local government web resources and services.